Terminal Aerodrome Forecast
Issued by NWS

Home | Current Version | Previous Version | Graphics & Text | Print | Product List | Glossary On
Versions: 1 2 3 4 5 6 7 8 9 10 11 12 13 14 15 16 17 18 19 20 21
000
FTUS43 KLSX 151500 AAB
TAFSUS
TAF AMD
KSUS 151543Z 1516/1612 15014G24KT P6SM OVC009
      TEMPO 1516/1517 5SM -RA BR
     FM151800 16014G24KT P6SM VCSH OVC015
     FM160200 25015KT P6SM OVC025
     FM160900 29014G22KT P6SM OVC015=

USA.gov is the U.S. government's official web portal to all federal, state and local government web resources and services.